LES NOUNOURS DU CAMBOUT : site officiel du club d'athlétisme de LE CAMBOUT - clubeo

Marche Nordique Raid du Golfe 29 km à Vannes le 30 juin 2018

place Nom Prénom Cat Place/Cat Temps
Ville ou Club
1 LEUX Denis VH2 1 03:24:53 01:44:45 breizh team
2 VIDAL Aurelien VH1 1 03:28:38 01:45:43 SAINT-HERBLAIN
3 BOUCHER Laurent VH2 2 03:33:19 01:47:30 ATHLE DU PAYS DE VANNES *
4 RIOU Yann VH2 3 03:33:45 01:48:19 STADE RENNAIS ATHLE
5 MORIN Yvon VH2 4 03:35:33 01:49:39 UNION SPORTIVE BAINAISE
6 JAUNET Nathalie VF2 1 03:36:53 01:50:45  COURIR A SAINT AVE
7 ADEM Larbi SH 1 03:37:30 01:49:05 QUIMPER
8 PATRY Olivier VH1 2 03:37:48 01:53:24 CHASNE SUR ILLET
9 ALLAIN France VF2 2 03:38:07 01:55:00  AC HAUTE VILAINE
10 MARECHAL Patrick VH3 1 03:39:06 01:49:38 LES FOULEES BREUILLETOISES
11 PRIOL Michel VH2 5 03:40:22 01:55:02 BREAL SOUS MONTFORT
12 GUILLEMIN Olivier VH1 3 03:41:58 01:49:33  COURIR A SAINT AVE
13 KERHOAS Jean paul VH2 6 03:42:59 01:57:28 PONT DE BUIS
14 COATHALEM Dominique VH3 2 03:43:28 01:53:59 COURIR A SAINT GREGOIRE
15 COATHALEM Laurence VF2 3 03:43:28 01:54:01 VIGNOC
38 LE TALLEC Regine VF2 4 03:56:36 02:02:36 cima
56 GANDIN Lery VH3 12 04:00:57 02:04:12 PLOERMEL
58 LE GAL Bertrand VH3 14 04:01:16 02:01:48 ac plescop 
179 LE NIVET Serge VH2 58 04:27:26 02:15:25 COLPO
371 TEMPIER Elodie VF1 43 04:50:43 02:35:00 PLOERMEL
375 KERLEAU Graziella SF 10 04:51:15 02:28:20 COLPO
407 LE FORMAL Jeanine VF3 24 04:55:20 02:24:35 CIMA PAYS D'AURAY
417 DELAVIER Valerie VF1 53 04:56:44 02:33:17 LOCMINE
449 MORVAN Nicolas VH1 41 05:00:34 02:29:41 COLPO
462 DENOUAL Michele VF3 33 05:01:56 02:30:37 COLPO
508 LE METAYER Anita VF1 72 05:06:43 02:23:51 COLPO
509 GUEGAN Florence VF1 73 05:06:44 02:23:53 COLPO
532 PICHODO Morgane VF1 76 05:08:42 02:37:25 A.C.R.L.P Locminé
533 LE BRETON Annie VF2 97 05:08:43 02:37:25 A.C.R.L.P Locminé
552 CHARLOTIN Bernard VH2 110 05:10:29 02:29:36 A.C.R.L.P Locminé
554 LE DOUARIN Stephanie SF 19 05:10:29 02:37:36 A.C.R.L.P Locminé
583 RIQUELME Brigitte VF3 50 05:12:18 02:37:47 A.C.R.L.P Locminé
609 JOSSO Michel VH3 137 05:15:05 02:37:32 MOREAC
769 PEDRONO Carole VF1 116 05:31:43 02:43:11 A.C.R.L.P Locminé
770 LE BRIS Stephane VH1 58 05:31:44 02:43:36 A.C.R.L.P Locminé
771 LE BRIS Ghisaline VF1 117 05:31:45 02:43:19 A.C.R.L.P Locminé
774 COCHIN Catherine VF2 163 05:32:13 02:40:20 NEULLIAC
804 GELARD RIOU Catherine VF2 172 05:35:30 02:40:09 A.C.R.L.P Locminé
908 LE BOTLAND Anne sophie SF 36 05:53:05 02:43:46 A.C.R.L.P Locminé
910 GUILLERMIC Karine VF1 148 05:53:07 02:43:29 A.C.R.L.P Locminé
911 RIQUELME Jean pierre VH3 167 05:53:08 02:43:45 A.C.R.L.P Locminé
912 SAMBUCHI Philippe VH2 147 05:53:18 03:06:06 CHAMPS SUR 

Les membres déjà inscrits sur le site de votre club :

  • 1 Dirigeant
  • 4 Athlètes
  • 3 Supporters